User: anonymous   Login
Location: Harwich
(41.6860°N, 70.0760°W)
Time: 10:54:36
(UTC-05:00)
Language:

Cosmos 2173 Rocket - Orbit

View from above orbital plane
View from above orbital plane
View from above satellite
View from above satellite

Ground track
Ground track

The orbit data is extracted from the following two-line orbital elements,

1 21797U 91081B   14330.75736624  .00000080  00000-0  64811-4 0  5635
2 21797 082.9555 035.3264 0038451 181.5243 299.8808 13.77302131155902
Epoch (UTC): 26 November 2014 18:10:36
Eccentricity: 0.0038451
inclination: 82.9555°
perigee height: 945 km
apogee height: 1002 km
right ascension of ascending node: 35.3264°
argument of perigee: 181.5243°
revolutions per day: 13.77302131
mean anomaly at epoch: 299.8808°
orbit number at epoch: 15590

The dashed part of the orbit path shows where the satellite is in the earth's shadow,  

DLR